Simultaneous Nadir Overpasses (SNOs) Predictions

Prediction of SNOs between LANDSAT-8 and METOP-B Satellite Orbit:

Table of predicted SNOs for the next 14.0 days since TLE Epoch: 8/19/2023
Index Date (LANDSAT-8) Time (LANDSAT-8) Lat,Lon (LANDSAT-8) SZA (LANDSAT-8 ) Date (METOP-B) Time (METOP-B) Lat,Lon (METOP-B) SZA (METOP-B ) Distance(km) Time Diff (sec)
1 08/19/2023 17:36:58 81.22, -42.70 70.69 08/19/2023 17:36:25 81.21, -42.88 70.66 3.17 33
2 08/19/2023 18:26:24 -81.24, 125.25 109.26 08/19/2023 18:27:04 -81.23, 125.13 109.25 2.09 40
3 08/22/2023 13:11:14 81.23, 23.89 71.66 08/22/2023 13:10:45 81.22, 23.71 71.62 3.22 29
4 08/22/2023 14:00:41 -81.22,-168.51 108.34 08/22/2023 14:01:25 -81.23,-168.64 108.33 2.21 44
5 08/25/2023 08:45:29 81.22, 90.29 72.63 08/25/2023 08:45:04 81.22, 90.23 72.61 1.05 25
6 08/25/2023 09:34:55 -81.24,-101.72 107.31 08/25/2023 09:35:43 -81.24,-101.71 107.29 0.44 48
7 08/28/2023 04:19:44 81.23, 156.87 73.65 08/28/2023 04:19:23 81.23, 157.06 73.66 3.30 21
8 08/28/2023 05:09:11 -81.23, -35.49 106.35 08/28/2023 05:10:04 -81.23, -35.62 106.34 2.29 53
9 08/30/2023 23:53:59 81.23,-136.74 74.66 08/30/2023 23:53:43 81.23,-136.56 74.67 3.13 16



Historial Predications of SNOs between LANDSAT-8 and METOP-B
